DW1006 Weather Reports


time (UTC)temp
F
wind
direction
speed
knots
gust
knots
rain 1hr
in
rain 24hr
in
rain mn
in
humidity
%
barometer
mb
20260502162609 69 95 0.0 0.0 0.00 0.09 0.09 82 1015.3
20260502162103 69 95 0.0 0.9 0.00 0.09 0.09 82 1015.4
20260502161558 70 95 0.0 0.9 0.00 0.09 0.09 82 1015.3
20260502161050 70 95 0.0 0.0 0.00 0.09 0.09 82 1015.5
20260502160544 70 95 0.0 0.0 0.00 0.09 0.09 82 1015.5
20260502151950 71 126 0.0 0.9 0.01 0.09 0.09 86 1016.3
20260502151444 70 126 0.0 0.9 0.01 0.09 0.09 85 1016.5
20260502150938 69 126 0.0 0.9 0.01 0.09 0.09 86 1016.5
20260502150439 69 126 0.0 0.9 0.01 0.09 0.09 87 1016.6
20260502130419 73 142 0.0 0.9 0.00 0.00 0.00 67 1017.9
20260502123418 76 186 1.7 4.3 0.00 0.00 0.00 58 1018.2
20260502122418 77 238 0.9 5.2 0.00 0.00 0.00 56 1018.1
20260502121915 77 182 0.9 5.2 0.00 0.00 0.00 57 1018.1
20260502121409 77 181 0.9 7.0 0.00 0.00 0.00 58 1018.1
20260502120356 77 121 0.9 6.1 0.00 0.00 0.00 56 1018.3
20260502115849 77 245 0.9 4.3 0.00 0.00 0.00 55 1018.4
20260502115351 77 236 1.7 4.3 0.00 0.00 0.00 55 1018.3
20260502114838 76 169 1.7 5.2 0.00 0.00 0.00 58 1018.3
20260502114331 76 173 0.9 5.2 0.00 0.00 0.00 60 1018.4
20260502113825 76 207 0.9 4.3 0.00 0.00 0.00 58 1018.5
20260502113319 76 189 1.7 7.8 0.00 0.00 0.00 57 1018.6
20260502112813 75 159 1.7 7.8 0.00 0.00 0.00 59 1018.9
20260502112307 75 181 1.7 6.1 0.00 0.00 0.00 58 1018.8
20260502111801 75 182 1.7 7.8 0.00 0.00 0.00 59 1018.8
20260502110749 75 183 1.7 7.0 0.00 0.00 0.00 61 1019.0
20260502110243 74 165 1.7 7.0 0.00 0.00 0.00 59 1019.1
20260502105737 74 169 1.7 5.2 0.00 0.00 0.00 61 1019.0
20260502105231 73 203 1.7 5.2 0.00 0.00 0.00 60 1019.1
20260502104725 73 178 0.9 4.3 0.00 0.00 0.00 61 1019.1
20260502104219 72 171 2.6 6.1 0.00 0.00 0.00 64 1019.0
20260502103215 72 153 2.6 7.8 0.00 0.00 0.00 59 1019.2
20260502102703 73 186 2.6 7.8 0.00 0.00 0.00 59 1019.2
20260502102156 73 139 1.7 5.2 0.00 0.00 0.00 61 1019.1
20260502101649 73 255 1.7 5.2 0.00 0.00 0.00 60 1019.2
20260502101143 73 188 1.7 6.1 0.00 0.00 0.00 61 1019.2
20260502100637 73 162 1.7 6.1 0.00 0.00 0.00 62 1019.5
20260502100131 73 193 0.9 3.5 0.00 0.00 0.00 64 1019.4
20260502091031 68 167 0.9 3.5 0.00 0.00 0.00 64 1019.7
20260502090533 68 167 0.9 3.5 0.00 0.00 0.00 63 1019.5
20260502071315 60 119 0.0 1.7 0.00 0.00 0.00 70 1019.7
20260502070808 60 101 0.0 1.7 0.00 0.00 0.00 71 1019.8
20260502070312 60 117 0.0 1.7 0.00 0.00 0.00 70 1019.7
20260502065756 59 129 0.0 1.7 0.00 0.00 0.00 69 1019.7
20260502064743 59 109 0.0 3.5 0.00 0.00 0.00 70 1019.7
20260502064237 58 162 0.0 3.5 0.00 0.00 0.00 72 1019.7
20260502062719 56 131 0.0 1.7 0.00 0.00 0.00 71 1019.7
20260502062215 56 157 0.0 1.7 0.00 0.00 0.00 74 1019.8
20260502061714 56 157 0.9 1.7 0.00 0.00 0.00 73 1019.8
20260502061206 55 157 0.0 1.7 0.00 0.00 0.00 74 1019.7
20260502060706 55 136 0.9 2.6 0.00 0.00 0.00 75 1019.8
20260502060207 55 126 0.9 2.6 0.00 0.00 0.00 75 1019.7
20260502055708 54 147 0.0 1.7 0.00 0.00 0.00 76 1019.6
20260502055206 54 147 0.0 3.5 0.00 0.00 0.00 76 1019.6
20260502054706 53 147 0.0 3.5 0.00 0.00 0.00 77 1019.6
20260502054205 53 119 0.0 0.9 0.00 0.00 0.00 78 1019.4
20260502053704 52 119 0.0 0.9 0.00 0.00 0.00 79 1019.4
20260502053203 51 119 0.0 0.9 0.00 0.00 0.00 77 1019.5
20260502052702 51 119 0.0 1.7 0.00 0.00 0.00 77 1019.6
20260502052203 51 119 0.0 1.7 0.00 0.00 0.00 77 1019.6
20260502051659 51 119 0.0 0.9 0.00 0.00 0.00 77 1019.6
20260502051202 50 119 0.0 0.0 0.00 0.00 0.00 76 1019.6
20260502050700 50 119 0.0 0.0 0.00 0.00 0.00 77 1019.6
20260502050200 50 119 0.0 0.9 0.00 0.00 0.00 76 1019.5
20260502045656 50 119 0.0 0.9 0.00 0.00 0.00 76 1019.5
20260502045156 50 119 0.0 0.0 0.00 0.00 0.00 76 1019.5
20260502044657 50 119 0.0 0.0 0.00 0.00 0.00 76 1019.6
20260502044156 50 119 0.0 0.0 0.00 0.00 0.00 76 1019.5
20260502043657 50 119 0.0 0.9 0.00 0.00 0.00 75 1019.4
20260502043156 50 119 0.0 0.9 0.00 0.00 0.00 75 1019.5
20260502042657 50 119 0.0 0.9 0.00 0.00 0.00 75 1019.5
20260502042156 50 119 0.0 1.7 0.00 0.00 0.00 75 1019.6
20260502041659 50 119 0.0 1.7 0.00 0.00 0.00 74 1019.7
20260502041152 50 119 0.0 0.9 0.00 0.00 0.00 74 1019.7
20260502040652 50 119 0.0 1.7 0.00 0.00 0.00 74 1019.7
20260502040153 50 119 0.0 1.7 0.00 0.00 0.00 74 1019.6
20260502035652 50 119 0.0 1.7 0.00 0.00 0.00 74 1019.8
20260502035151 50 117 0.0 1.7 0.00 0.00 0.00 74 1019.7
20260502034155 50 118 0.0 1.7 0.00 0.00 0.00 74 1019.8
20260502033154 51 109 0.9 1.7 0.00 0.00 0.00 72 1019.8
20260502032144 51 105 0.9 2.6 0.00 0.00 0.00 72 1019.8
20260502031638 51 107 0.9 2.6 0.00 0.00 0.00 72 1019.8
20260502031130 51 128 0.0 0.9 0.00 0.00 0.00 72 1019.9
20260502030623 51 128 0.0 1.7 0.00 0.00 0.00 72 1019.9
20260502030119 51 128 0.0 1.7 0.00 0.00 0.00 72 1020.0
20260502025105 51 128 0.0 1.7 0.00 0.00 0.00 72 1020.1
20260502024559 51 128 0.0 1.7 0.00 0.00 0.00 71 1020.1
20260502024054 51 128 0.0 1.7 0.00 0.00 0.00 71 1020.2
20260502023550 51 132 0.0 0.9 0.00 0.00 0.00 71 1020.2
20260502022535 51 132 0.0 0.9 0.00 0.00 0.00 70 1020.3
20260502022030 52 132 0.0 0.9 0.00 0.00 0.00 69 1020.3
20260502021523 52 132 0.0 1.7 0.00 0.00 0.00 68 1020.3
20260502021017 52 132 0.0 1.7 0.00 0.00 0.00 67 1020.4
20260502020009 52 132 0.0 1.7 0.00 0.00 0.00 67 1020.5
20260502014953 52 132 0.0 1.7 0.00 0.00 0.00 67 1020.5
20260502014446 53 132 0.0 1.7 0.00 0.00 0.00 67 1020.5
20260502013941 53 132 0.0 1.7 0.00 0.00 0.00 67 1020.4
20260502013433 53 132 0.0 1.7 0.00 0.00 0.00 67 1020.4
20260502012927 53 111 0.0 1.7 0.00 0.00 0.00 67 1020.4
20260502012421 53 115 0.0 1.7 0.00 0.00 0.00 67 1020.4
20260502011915 53 119 0.0 1.7 0.00 0.00 0.00 66 1020.4
20260502011410 53 119 0.0 1.7 0.00 0.00 0.00 66 1020.5
20260502010903 53 119 0.0 0.9 0.00 0.00 0.00 66 1020.5
20260502010359 53 119 0.0 1.7 0.00 0.00 0.00 66 1020.6
20260502005852 53 119 0.0 1.7 0.00 0.00 0.00 65 1020.7
20260502005345 53 119 0.0 0.9 0.00 0.00 0.00 65 1020.7
20260502004840 54 119 0.0 0.9 0.00 0.00 0.00 64 1020.7
20260502003827 55 119 0.0 0.9 0.00 0.00 0.00 62 1020.9
20260502003322 55 119 0.0 0.9 0.00 0.00 0.00 62 1021.0
20260502002816 55 119 0.9 1.7 0.00 0.00 0.00 62 1021.0
20260502002309 55 119 0.9 1.7 0.00 0.00 0.00 62 1021.1
20260502001811 56 119 0.0 1.7 0.00 0.00 0.00 61 1021.1
20260502001259 56 119 0.0 1.7 0.00 0.00 0.00 61 1021.2
20260502000752 56 118 0.0 2.6 0.00 0.00 0.00 60 1021.2
20260502000248 56 111 0.0 2.6 0.00 0.00 0.00 60 1021.3
20260501235234 57 115 0.0 1.7 0.00 0.00 0.00 60 1021.4
20260501234728 57 115 0.0 2.6 0.00 0.00 0.00 59 1021.4
20260501234221 57 111 0.0 2.6 0.00 0.00 0.00 59 1021.4
20260501233726 57 157 0.0 1.7 0.00 0.00 0.00 59 1021.6
20260501233209 57 137 0.0 1.7 0.00 0.00 0.00 58 1021.7
20260501232704 58 165 0.0 1.7 0.00 0.00 0.00 58 1021.7
20260501232158 58 165 0.0 1.7 0.00 0.00 0.00 58 1021.8
20260501231700 58 149 0.0 4.3 0.00 0.00 0.00 58 1021.8
20260501230639 58 180 0.9 3.5 0.00 0.00 0.00 58 1021.9
20260501230134 58 174 0.9 4.3 0.00 0.00 0.00 57 1021.9
20260501225628 58 175 0.9 4.3 0.00 0.00 0.00 58 1021.9
20260501225123 58 178 0.9 2.6 0.00 0.00 0.00 57 1021.8
20260501224109 58 148 0.0 2.6 0.00 0.00 0.00 57 1021.9
20260501223605 58 161 0.0 2.6 0.00 0.00 0.00 57 1021.8
20260501223059 59 153 0.0 2.6 0.00 0.00 0.00 57 1022.0
20260501222551 59 128 0.0 1.7 0.00 0.00 0.00 56 1021.9
20260501222045 59 142 0.0 2.6 0.00 0.00 0.00 56 1021.8
20260501221542 59 172 0.9 4.3 0.00 0.00 0.00 56 1021.8
20260501221034 58 188 0.9 4.3 0.00 0.00 0.00 56 1021.8
20260501220021 58 188 0.9 2.6 0.00 0.00 0.00 57 1021.9
20260501215517 58 188 0.9 3.5 0.00 0.00 0.00 56 1021.9
20260501215010 58 188 0.9 3.5 0.00 0.00 0.00 56 1021.8
20260501214504 59 188 0.9 3.5 0.00 0.00 0.00 56 1021.8
20260501213958 59 179 0.9 2.6 0.00 0.00 0.00 56 1021.8
20260501213452 59 179 0.9 2.6 0.00 0.00 0.00 55 1021.8
20260501212945 59 179 0.9 2.6 0.00 0.00 0.00 55 1021.8
20260501212439 60 179 0.9 2.6 0.00 0.00 0.00 54 1021.8
20260501211428 60 179 0.0 2.6 0.00 0.00 0.00 53 1021.9
20260501210921 61 179 0.9 3.5 0.00 0.00 0.00 53 1021.9
20260501205910 62 179 0.9 3.5 0.00 0.00 0.00 51 1022.0
20260501205405 62 179 0.9 3.5 0.00 0.00 0.00 51 1022.0
20260501204857 62 164 0.9 1.7 0.00 0.00 0.00 50 1022.1
20260501204353 62 140 0.9 2.6 0.00 0.00 0.00 50 1022.0
20260501203849 62 113 0.9 3.5 0.00 0.00 0.00 50 1022.1
20260501203340 62 117 0.9 3.5 0.00 0.00 0.00 49 1022.1
20260501202836 62 113 0.9 1.7 0.00 0.00 0.00 50 1022.1
20260501201823 62 100 0.0 2.6 0.00 0.00 0.00 50 1022.1
20260501201317 62 154 0.0 2.6 0.00 0.00 0.00 50 1022.1
20260501200812 62 166 0.0 1.7 0.00 0.00 0.00 50 1022.1
20260501200307 63 119 0.0 1.7 0.00 0.00 0.00 49 1022.0
20260501195758 63 118 0.0 1.7 0.00 0.00 0.00 49 1022.0
20260501195251 64 118 0.0 1.7 0.00 0.00 0.00 48 1022.0
20260501194745 64 98 0.9 3.5 0.00 0.00 0.00 48 1021.9
20260501193733 64 113 0.9 4.3 0.00 0.00 0.00 47 1021.9
20260501193228 64 119 0.9 1.7 0.00 0.00 0.00 48 1021.9
20260501192721 64 116 0.9 1.7 0.00 0.00 0.00 48 1022.0
20260501191709 64 156 0.9 2.6 0.00 0.00 0.00 48 1021.9
20260501190657 64 113 0.0 1.7 0.00 0.00 0.00 47 1021.9
20260501190152 65 112 0.0 1.7 0.00 0.00 0.00 47 1021.9
20260501185645 65 112 0.0 1.7 0.00 0.00 0.00 47 1021.9
20260501184634 66 113 0.0 2.6 0.00 0.00 0.00 47 1022.1
20260501184130 66 111 0.9 2.6 0.00 0.00 0.00 45 1022.0
20260501183627 67 114 0.9 1.7 0.00 0.00 0.00 46 1022.0
20260501183127 67 104 0.0 1.7 0.00 0.00 0.00 45 1022.0
20260501182628 67 111 0.0 1.7 0.00 0.00 0.00 45 1022.0
20260501182123 68 111 0.0 1.7 0.00 0.00 0.00 44 1021.9
20260501181119 68 90 0.9 3.5 0.00 0.00 0.00 43 1021.9
20260501180118 69 85 0.9 5.2 0.00 0.00 0.00 43 1022.0
20260501175618 69 93 0.9 3.5 0.00 0.00 0.00 43 1021.9
20260501175116 70 108 0.9 3.5 0.00 0.00 0.00 43 1021.9
20260501174619 70 98 0.9 2.6 0.00 0.00 0.00 41 1021.8
20260501174117 70 102 0.9 6.1 0.00 0.00 0.00 41 1021.8
20260501173616 71 94 0.9 6.1 0.00 0.00 0.00 41 1021.8
20260501173113 71 101 0.9 4.3 0.00 0.00 0.00 41 1021.8
20260501172615 71 87 1.7 4.3 0.00 0.00 0.00 40 1021.8
20260501172114 72 87 1.7 2.6 0.00 0.00 0.00 39 1021.8
20260501171613 72 118 1.7 5.2 0.00 0.00 0.00 39 1021.9
20260501171113 73 89 1.7 5.2 0.00 0.00 0.00 37 1022.0
20260501170115 74 109 1.7 5.2 0.00 0.00 0.00 36 1022.0
20260501165613 75 82 1.7 5.2 0.00 0.00 0.00 36 1021.9
20260501165113 76 87 1.7 5.2 0.00 0.00 0.00 36 1021.9
20260501164610 76 92 1.7 7.0 0.00 0.00 0.00 37 1021.9
20260501164110 76 115 1.7 7.0 0.00 0.00 0.00 35 1022.1
20260501163610 76 110 1.7 6.1 0.00 0.00 0.00 36 1022.1